Temp
15 15 15 15 15 15 15 15 15 15 15 15 15 15 15 15 15 15 15 15 15 15 15 15 15 15 15 16 16 16 16 16 16 16 16 16 16 16 16 15 15 15 15 14 14 14 14 13 13 13 13 13 12 12 12 12 11 11 11 11 11 11 11 11 11 11 11 11 11
16 16 16 16 15 15 15 15 15 15 15 15 15 15 15 15 15 15 15 15 15 15 15 15 15 15 16 16 16 16 16 16 16 16 16 16 16 16 15 15 15 15 14 14 14 14 14 13 13 13 13 13 13 12 12 12 12 12 11 11 11 11 11 11 11 11 11 11 11
16 16 16 16 16 15 15 15 15 15 15 15 15 15 15 15 15 15 15 15 15 15 15 15 15 16 16 16 16 16 16 16 16 16 16 15 15 15 15 15 15 15 14 14 14 14 14 13 13 13 13 13 13 13 12 12 12 12 12 12 12 12 11 11 11 11 11 11 10
16 16 16 16 15 15 15 15 15 15 15 15 15 15 15 15 15 15 15 15 15 15 15 15 16 16 16 16 16 16 15 15 15 15 15 15 15 15 15 15 15 15 15 14 14 14 14 14 13 13 13 13 13 13 12 12 12 12 12 11 11 11 11 11 11 11 11 10 10
15 15 15 15 15 15 15 15 15 15 15 15 15 15 15 15 15 15 15 15 15 15 15 15 16 16 16 15 15 15 15 15 15 15 15 15 15 15 15 15 15 15 14 14 14 14 14 13 13 13 13 13 13 12 12 12 12 11 11 11 11 11 11 11 11 11 10 10 10
15 15 15 15 15 15 15 15 15 15 15 15 15 15 15 15 15 15 15 15 15 15 15 15 15 15 15 15 15 15 15 15 15 15 15 15 15 15 15 14 14 14 14 14 14 13 13 13 13 13 13 13 12 12 12 12 11 11 11 11 11 11 11 11 10 10 10 10 10
15 15 15 15 15 15 15 15 15 15 15 15 15 15 15 15 15 15 15 15 15 15 15 15 15 15 15 15 15 15 14 14 14 14 14 14 14 14 14 14 14 14 13 13 13 13 13 13 13 12 12 12 12 12 12 11 11 11 10 10 10 10 10 10 9 9 10 10 10
15 15 15 15 15 15 15 15 15 15 15 15 15 15 15 15 15 15 15 15 15 15 15 15 14 14 14 14 14 14 14 14 14 14 14 14 14 14 14 13 13 13 13 13 13 13 12 12 12 12 12 12 11 11 11 11 10 10 10 10 10 9 9 9 9 10 10 10 10
15 15 15 15 15 15 15 15 15 15 15 15 15 15 15 15 15 15 15 15 15 14 14 14 14 14 14 14 14 14 14 14 13 13 13 13 13 13 13 13 13 13 13 12 12 12 12 12 12 11 11 11 11 10 10 10 10 10 10 10 10 10 10 10 10 10 10 10 10
14 14 14 14 14 14 14 14 14 14 14 14 14 14 14 14 14 14 14 14 14 14 14 13 13 13 13 13 13 13 13 13 13 13 13 13 13 13 13 12 12 12 12 12 12 12 12 12 11 11 10 10 10 10 10 10 10 10 10 10 10 10 10 10 10 10 10 10 10
14 14 14 14 14 14 14 14 14 14 14 14 14 14 14 14 14 14 13 13 13 13 13 13 13 13 13 13 13 13 13 13 12 12 12 12 12 12 12 12 12 12 12 12 11 11 11 11 11 11 10 9 10 10 10 10 10 10 10 10 10 10 10 10 10 10 10 10 10
13 13 13 13 13 13 13 13 13 14 14 13 13 13 13 13 13 13 13 13 13 13 13 13 13 13 13 12 12 12 12 12 12 12 12 12 12 12 12 12 12 11 11 11 11 11 11 11 11 11 10 10 10 10 10 10 10 10 10 10 10 10 10 10 10 10 10 10 10
13 13 13 13 13 13 13 13 13 13 13 13 13 13 13 13 13 13 13 12 12 12 12 12 12 12 12 12 12 12 12 12 11 11 11 11 11 11 11 11 11 11 11 11 11 11 10 10 10 10 10 10 10 10 10 10 10 10 10 10 10 10 10 10 10 10 10 10 10
12 12 12 13 13 13 13 13 13 13 13 13 13 13 12 12 12 12 12 12 12 12 12 12 12 12 12 11 11 11 11 11 11 11 11 11 11 11 11 11 11 11 11 10 10 10 10 10 10 10 10 10 10 9 10 10 10 10 10 9 9 9 9 9 9 9 9 9 9
12 12 12 12 12 12 12 12 12 12 12 12 12 12 12 12 12 12 12 12 12 12 12 11 11 11 11 11 11 11 11 11 11 10 11 11 10 10 10 10 10 10 10 10 10 10 10 10 10 10 10 10 10 10 9 9 9 9 9 9 9 9 9 9 9 9 9 9 8
12 12 12 12 12 12 12 12 12 12 12 12 12 12 11 11 11 11 11 11 11 11 11 11 11 11 11 10 10 10 10 10 10 10 10 10 10 10 10 10 10 10 10 10 10 10 10 10 10 10 10 10 10 10 9 9 9 9 9 9 9 9 9 9 9 9 8 8 8
12 12 12 12 12 12 12 12 12 12 12 11 11 11 11 11 11 11 11 11 11 11 11 10 10 10 10 10 10 10 10 10 10 10 10 10 10 10 10 10 10 10 10 10 10 10 10 10 10 10 10 9 9 9 9 9 9 9 9 9 9 9 9 9 9 9 9 8 8
12 12 12 12 12 12 12 11 11 11 11 11 11 11 11 11 11 10 10 10 10 10 10 10 10 10 10 10 9 9 9 9 9 9 9 9 9 9 9 9 9 9 9 9 9 9 9 9 9 9 9 9 9 9 9 9 9 9 9 9 9 9 9 9 9 9 9 8 8
12 12 12 12 12 11 11 11 11 11 11 11 11 11 10 10 10 10 10 10 10 10 10 10 10 9 9 9 9 9 9 9 9 9 9 9 9 9 9 9 9 9 9 9 9 9 9 9 9 9 9 9 9 9 9 9 9 9 9 9 9 9 9 9 9 9 8 8 8
11 11 11 11 11 11 11 11 11 10 10 10 10 10 10 10 10 10 10 10 10 10 9 9 9 9 9 9 9 9 9 9 9 9 9 9 9 9 9 9 9 9 9 9 9 9 9 9 9 9 9 9 9 9 9 9 9 9 9 9 9 9 9 8 8 8 8 8 8
11 11 11 11 11 11 10 10 10 10 10 10 10 10 10 10 10 9 9 9 9 9 9 9 9 9 9 9 8 8 8 8 8 8 8 8 8 8 8 8 8 8 8 8 8 8 8 8 8 8 8 8 8 8 8 8 8 8 8 8 8 8 8 8 8 8 8 8 8
11 11 11 11 10 10 10 10 10 10 10 10 9 9 9 9 9 9 9 9 9 9 9 9 8 8 8 8 8 8 8 8 8 8 8 8 8 8 8 8 8 8 8 8 8 8 8 8 8 8 8 8 8 8 8 8 8 8 8 8 8 8 8 8 8 8 8 8 8
11 10 10 10 10 10 10 10 10 10 9 9 9 9 9 9 9 9 9 9 9 9 8 8 8 8 8 8 8 8 7 7 7 7 7 7 7 7 7 7 7 7 7 8 8 8 8 8 8 8 8 8 8 8 8 8 8 8 8 8 8 8 8 8 8 8 8 8 8
10 10 10 10 10 10 10 10 10 10 9 9 9 9 9 9 9 9 9 9 9 8 8 8 8 8 8 8 7 7 7 7 7 7 7 7 7 7 7 7 7 7 7 7 7 7 7 7 8 8 8 8 8 8 8 8 8 8 8 8 8 8 7 7 7 7 7 7 7
10 10 10 10 10 10 10 10 9 9 9 9 9 9 9 9 9 9 9 8 8 8 8 8 8 8 7 7 7 7 7 7 6 6 6 6 6 6 6 7 7 7 7 7 7 7 7 7 7 7 7 7 8 8 7 7 7 7 7 7 7 7 7 7 7 7 7 7 6
10 10 10 10 10 10 10 9 9 9 9 9 9 9 9 9 9 9 8 8 8 8 8 8 8 7 7 7 7 7 6 6 6 6 6 6 6 6 6 6 6 7 7 7 7 7 7 7 7 7 7 7 7 7 7 7 7 7 7 7 7 7 7 7 6 6 6 6 5
10 10 10 10 10 9 9 9 9 9 9 9 9 9 9 9 9 8 8 8 8 8 8 8 7 7 7 7 6 6 6 5 5 5 5 5 5 5 6 6 6 6 6 7 7 7 7 7 7 7 7 7 7 7 7 7 7 7 6 6 6 6 6 6 6 5 5 5 5
10 10 10 10 9 9 9 9 9 9 9 9 9 9 9 9 8 8 8 8 8 8 8 8 7 7 7 6 6 6 5 5 5 4 4 5 5 5 5 6 6 6 6 6 6 6 7 7 7 7 7 7 7 6 6 6 6 6 6 6 5 5 5 5 5 5 5 5 5
10 10 9 9 9 9 9 9 9 8 8 9 9 9 8 8 8 8 8 8 8 8 8 7 7 7 6 6 6 5 5 4 4 4 4 4 5 5 5 6 6 6 6 6 6 6 6 6 6 6 6 6 6 6 6 6 5 5 5 5 5 5 5 5 4 4 4 4 4
10 9 9 9 9 9 9 8 8 8 8 8 8 8 8 8 8 8 8 7 7 7 7 7 7 6 6 6 5 5 4 4 4 4 4 4 4 5 5 5 6 6 6 6 6 6 6 6 6 6 6 6 6 6 5 5 5 5 4 4 4 4 4 4 4 4 4 4 4
9 9 9 9 9 9 8 8 8 8 8 8 8 8 8 8 8 8 7 7 7 7 6 6 6 5 5 5 4 4 3 3 3 3 3 4 4 5 5 5 5 5 6 6 6 6 6 6 5 5 5 5 5 5 5 4 4 4 4 4 4 4 4 4 4 4 4 4 4
9 9 9 9 9 8 8 8 8 8 8 7 7 8 8 8 7 7 7 6 6 6 6 5 5 4 4 3 3 3 3 3 3 3 3 4 4 4 5 5 5 5 5 5 5 5 5 5 5 5 5 5 4 4 4 4 4 4 4 4 4 3 3 3 3 3 3 3 3
9 9 9 8 8 8 8 8 8 7 7 7 7 7 7 7 7 7 6 6 6 5 5 4 4 3 3 2 2 2 2 2 2 2 3 3 4 4 4 5 5 5 5 5 5 5 5 5 5 4 4 4 4 4 4 4 4 3 3 3 3 3 3 3 3 3 3 3 3
9 9 8 8 8 8 8 8 7 7 7 7 7 7 7 7 7 6 6 5 5 4 4 3 3 2 2 2 1 1 1 1 1 2 2 3 3 4 4 4 4 4 4 4 5 5 4 4 4 4 4 4 4 4 4 3 3 3 3 3 3 3 3 3 3 3 3 3 3
9 8 8 8 8 8 7 7 7 7 7 7 7 7 7 7 6 6 5 5 4 4 3 2 2 2 1 1 1 1 1 1 1 1 2 2 3 3 3 4 4 4 4 4 4 4 4 4 4 4 4 3 3 3 3 3 3 3 3 3 3 3 3 3 3 3 3 3 3
9 8 8 8 8 7 7 7 7 7 7 7 6 6 6 6 6 5 4 4 3 3 2 2 2 1 1 1 1 0 0 0 1 1 1 2 2 3 3 3 3 3 4 4 4 4 3 3 3 3 3 3 3 3 3 3 2 2 2 2 2 2 2 2 2 2 2 2 2
8 8 8 8 7 7 7 7 6 6 6 6 6 6 6 5 5 4 4 3 3 2 2 1 1 1 1 0 0 0 0 0 0 1 1 1 2 2 3 3 3 3 3 3 3 3 3 3 3 3 3 3 3 2 2 2 2 2 2 2 2 2 2 2 2 2 2 2 2
8 8 8 7 7 7 6 6 6 6 6 6 6 6 5 5 4 3 3 2 2 2 1 1 1 1 0 0 0 0 0 0 0 0 1 1 1 2 2 3 3 3 3 3 3 3 2 2 2 2 2 2 2 2 2 2 2 2 2 2 2 2 2 2 2 2 2 2 2
8 8 7 7 7 6 6 6 6 6 6 6 6 5 5 4 3 3 2 2 1 1 1 1 1 1 0 0 0 -0 -0 0 0 0 1 1 1 2 2 2 2 3 3 2 2 2 2 2 2 2 2 2 2 2 2 2 2 2 2 2 2 2 2 2 2 2 2 2 2
8 7 7 6 6 6 6 6 5 5 5 5 5 5 4 3 3 2 2 1 1 1 1 1 1 0 0 -0 -0 -0 -0 -0 -0 0 0 1 1 1 2 2 2 2 2 2 2 2 2 1 1 1 1 1 1 1 1 1 2 2 2 2 2 2 2 2 2 2 2 2 2
7 6 6 6 6 5 5 5 5 5 5 5 5 4 3 3 2 2 1 1 1 1 1 1 0 0 -0 -0 -1 -1 -1 -1 -1 -0 0 0 1 1 2 2 2 2 1 1 1 1 1 1 1 1 1 1 1 1 1 1 2 2 2 2 2 2 2 2 2 2 1 1 1
Height
1521 1522 1522 1523 1524 1524 1525 1526 1526 1527 1527 1528 1529 1529 1530 1531 1531 1532 1532 1532 1532 1533 1533 1533 1533 1534 1534 1535 1535 1535 1536 1536 1536 1536 1536 1536 1536 1535 1535 1535 1535 1535 1535 1535 1535 1536 1536 1536 1536 1536 1536 1536 1536 1536 1536 1536 1537 1536 1536 1536 1536 1536 1536 1537 1537 1537 1537 1537 1537
1519 1520 1521 1521 1522 1523 1523 1524 1525 1525 1526 1527 1527 1528 1528 1529 1529 1530 1530 1530 1530 1531 1531 1531 1532 1532 1532 1533 1533 1533 1533 1534 1534 1533 1533 1533 1533 1533 1533 1533 1533 1533 1533 1533 1534 1534 1534 1534 1534 1534 1534 1534 1535 1535 1535 1535 1535 1535 1535 1534 1534 1535 1535 1535 1535 1535 1535 1535 1535
1517 1518 1519 1520 1520 1521 1522 1522 1523 1524 1524 1525 1525 1526 1527 1527 1527 1527 1528 1528 1528 1529 1529 1530 1530 1530 1531 1531 1531 1531 1532 1532 1532 1532 1532 1532 1532 1532 1532 1532 1532 1532 1532 1532 1532 1532 1532 1532 1532 1532 1532 1532 1533 1533 1533 1533 1533 1533 1533 1533 1533 1533 1533 1533 1533 1533 1533 1533 1534
1516 1516 1517 1518 1519 1519 1520 1521 1522 1522 1522 1523 1523 1524 1524 1525 1525 1526 1526 1526 1527 1527 1527 1528 1528 1528 1529 1529 1529 1530 1530 1530 1530 1530 1530 1530 1530 1530 1530 1530 1530 1530 1530 1530 1530 1530 1530 1530 1530 1530 1530 1531 1531 1531 1532 1532 1532 1532 1532 1532 1532 1532 1532 1532 1532 1532 1532 1532 1532
1514 1515 1515 1516 1517 1517 1518 1519 1519 1520 1520 1521 1521 1522 1522 1523 1523 1524 1524 1524 1525 1525 1526 1526 1527 1527 1527 1527 1528 1528 1528 1528 1528 1528 1528 1528 1528 1528 1528 1528 1528 1528 1528 1528 1528 1529 1529 1529 1529 1529 1529 1529 1529 1529 1529 1530 1530 1530 1530 1530 1530 1530 1530 1530 1530 1530 1530 1531 1532
1512 1512 1513 1514 1514 1515 1516 1516 1517 1518 1518 1519 1520 1520 1521 1521 1522 1522 1522 1523 1523 1524 1524 1525 1525 1525 1525 1526 1526 1526 1526 1526 1526 1526 1526 1526 1526 1527 1527 1527 1527 1527 1527 1527 1527 1527 1527 1527 1527 1527 1527 1527 1527 1527 1528 1528 1528 1528 1528 1528 1528 1528 1528 1528 1528 1528 1529 1530 1530
1510 1510 1511 1512 1512 1513 1514 1514 1515 1516 1517 1517 1518 1518 1519 1520 1520 1520 1521 1522 1522 1522 1523 1523 1523 1523 1524 1524 1524 1524 1525 1525 1525 1525 1525 1525 1525 1525 1525 1525 1525 1525 1525 1525 1525 1525 1525 1525 1526 1526 1526 1526 1526 1526 1526 1526 1526 1527 1527 1527 1527 1527 1527 1527 1527 1527 1528 1529 1529
1508 1508 1509 1510 1511 1512 1512 1513 1514 1515 1515 1516 1517 1517 1517 1518 1518 1519 1520 1520 1521 1521 1522 1522 1522 1522 1522 1522 1522 1523 1523 1523 1523 1523 1523 1523 1523 1523 1523 1523 1523 1523 1524 1524 1524 1524 1524 1524 1524 1524 1524 1524 1524 1524 1524 1525 1525 1525 1525 1525 1525 1526 1526 1526 1527 1527 1527 1527 1528
1507 1507 1508 1509 1510 1511 1511 1512 1512 1513 1514 1514 1515 1516 1516 1517 1517 1518 1518 1519 1520 1520 1520 1521 1521 1521 1521 1521 1521 1521 1521 1522 1521 1521 1521 1522 1522 1522 1522 1522 1522 1522 1522 1522 1522 1522 1522 1522 1522 1522 1522 1522 1523 1523 1523 1524 1524 1524 1524 1524 1525 1525 1525 1525 1526 1526 1526 1526 1526
1506 1507 1507 1508 1509 1509 1510 1511 1511 1512 1512 1513 1514 1514 1515 1516 1517 1517 1517 1518 1518 1519 1519 1519 1519 1519 1519 1519 1520 1520 1520 1520 1520 1520 1520 1520 1520 1520 1520 1520 1521 1521 1521 1521 1521 1521 1521 1521 1521 1521 1522 1522 1522 1522 1522 1523 1523 1523 1523 1523 1524 1524 1524 1524 1524 1524 1524 1524 1524
1505 1506 1506 1507 1507 1508 1509 1509 1510 1511 1512 1512 1513 1513 1514 1515 1515 1516 1517 1517 1517 1517 1517 1517 1517 1518 1518 1518 1518 1518 1518 1518 1518 1518 1518 1518 1518 1518 1519 1519 1519 1519 1519 1519 1519 1520 1520 1520 1520 1520 1520 1521 1521 1522 1522 1522 1522 1522 1522 1522 1522 1523 1523 1522 1522 1522 1522 1522 1523
1503 1504 1505 1506 1506 1507 1507 1508 1509 1510 1510 1511 1512 1512 1513 1514 1514 1515 1515 1515 1516 1516 1516 1516 1516 1516 1516 1517 1516 1516 1516 1516 1516 1517 1517 1517 1517 1517 1517 1517 1517 1518 1518 1518 1518 1518 1518 1519 1519 1519 1519 1519 1520 1520 1520 1520 1520 1521 1521 1521 1521 1521 1521 1521 1521 1521 1521 1521 1522
1502 1503 1504 1504 1505 1506 1507 1507 1508 1509 1509 1510 1511 1511 1512 1512 1513 1513 1513 1514 1514 1514 1514 1514 1515 1515 1515 1515 1515 1515 1515 1515 1515 1515 1515 1515 1515 1515 1516 1516 1516 1516 1516 1517 1517 1517 1517 1517 1517 1517 1518 1518 1518 1519 1519 1519 1519 1519 1520 1520 1520 1519 1519 1519 1519 1519 1520 1520 1520
1502 1502 1503 1503 1504 1505 1505 1506 1507 1507 1508 1509 1509 1510 1511 1511 1511 1512 1512 1512 1512 1512 1513 1513 1513 1513 1513 1513 1513 1513 1513 1513 1513 1513 1513 1513 1514 1514 1514 1514 1515 1515 1515 1515 1515 1516 1516 1516 1516 1516 1516 1517 1517 1517 1517 1517 1518 1518 1518 1518 1518 1518 1518 1518 1518 1518 1518 1518 1519
1501 1501 1502 1502 1503 1504 1504 1505 1506 1507 1507 1508 1508 1509 1509 1510 1510 1510 1510 1511 1511 1511 1511 1511 1511 1511 1511 1512 1512 1512 1512 1512 1512 1512 1512 1512 1512 1512 1513 1513 1513 1513 1513 1514 1514 1514 1514 1514 1515 1515 1515 1515 1515 1516 1516 1516 1516 1516 1516 1517 1517 1517 1517 1517 1517 1517 1517 1517 1517
1500 1500 1501 1502 1502 1503 1503 1504 1505 1505 1506 1507 1507 1507 1508 1508 1508 1509 1509 1509 1509 1509 1509 1510 1510 1510 1510 1510 1510 1510 1510 1510 1510 1510 1510 1511 1511 1511 1512 1512 1512 1512 1512 1512 1513 1513 1513 1513 1513 1513 1514 1514 1514 1514 1514 1515 1515 1515 1515 1515 1515 1515 1515 1515 1516 1516 1516 1516 1516
1499 1499 1500 1500 1501 1502 1502 1503 1503 1504 1505 1505 1506 1506 1506 1507 1507 1507 1507 1507 1507 1507 1508 1508 1508 1508 1508 1508 1508 1508 1508 1508 1508 1509 1509 1509 1510 1510 1510 1510 1510 1511 1511 1511 1511 1512 1512 1512 1512 1512 1512 1512 1512 1513 1513 1513 1513 1513 1513 1514 1514 1514 1514 1514 1514 1514 1514 1515 1515
1497 1498 1499 1499 1500 1501 1501 1502 1502 1503 1503 1504 1504 1504 1505 1505 1505 1505 1506 1506 1506 1506 1506 1506 1506 1507 1507 1507 1507 1507 1507 1507 1507 1507 1508 1508 1508 1508 1508 1509 1509 1509 1509 1509 1510 1510 1510 1510 1511 1511 1511 1511 1511 1511 1511 1511 1512 1512 1512 1512 1512 1512 1512 1513 1513 1513 1513 1513 1513
1496 1497 1497 1498 1499 1499 1500 1500 1501 1501 1502 1502 1502 1503 1503 1503 1504 1504 1504 1504 1504 1504 1505 1505 1505 1505 1505 1505 1505 1505 1505 1505 1506 1506 1506 1506 1507 1507 1507 1507 1507 1507 1507 1508 1508 1508 1508 1509 1509 1509 1509 1509 1509 1509 1509 1510 1510 1510 1510 1510 1511 1511 1511 1511 1511 1511 1511 1511 1511
1495 1496 1496 1497 1497 1498 1499 1499 1499 1500 1500 1501 1501 1501 1502 1502 1502 1502 1502 1502 1503 1503 1503 1503 1503 1503 1503 1503 1503 1503 1504 1504 1504 1504 1504 1505 1505 1505 1505 1505 1506 1506 1506 1506 1506 1507 1507 1507 1507 1507 1507 1507 1507 1507 1507 1508 1508 1508 1508 1508 1509 1509 1509 1509 1509 1509 1509 1509 1510
1494 1494 1495 1496 1496 1497 1497 1498 1498 1499 1499 1499 1500 1500 1500 1501 1501 1501 1501 1501 1501 1501 1501 1501 1501 1501 1501 1502 1502 1502 1502 1502 1502 1502 1503 1503 1503 1503 1503 1504 1504 1504 1504 1504 1504 1504 1505 1505 1505 1505 1505 1505 1505 1506 1506 1506 1506 1506 1507 1507 1507 1507 1507 1507 1507 1507 1507 1508 1508
1492 1493 1494 1495 1495 1496 1496 1497 1497 1497 1498 1498 1499 1499 1499 1499 1500 1500 1500 1500 1500 1500 1500 1500 1499 1499 1499 1500 1500 1500 1501 1501 1501 1501 1501 1501 1502 1502 1502 1502 1502 1502 1502 1502 1502 1502 1503 1503 1503 1503 1503 1503 1503 1504 1504 1504 1504 1504 1504 1505 1505 1505 1505 1505 1505 1505 1506 1506 1506
1492 1492 1493 1494 1494 1495 1495 1496 1496 1497 1497 1497 1497 1498 1498 1498 1498 1498 1498 1498 1498 1498 1498 1498 1498 1497 1497 1498 1498 1498 1499 1499 1499 1499 1499 1499 1500 1500 1500 1500 1500 1500 1501 1501 1501 1501 1501 1501 1501 1501 1502 1502 1502 1502 1502 1502 1502 1502 1503 1503 1503 1503 1503 1503 1503 1503 1504 1504 1504
1491 1491 1492 1492 1493 1494 1494 1495 1495 1495 1496 1496 1496 1497 1497 1497 1497 1497 1497 1497 1497 1497 1496 1496 1496 1496 1496 1496 1496 1496 1497 1497 1497 1497 1497 1497 1498 1498 1498 1498 1498 1499 1499 1499 1499 1499 1499 1499 1499 1499 1500 1500 1500 1500 1500 1500 1501 1501 1501 1501 1501 1501 1501 1502 1502 1502 1502 1502 1503
1490 1490 1491 1492 1492 1492 1493 1493 1494 1494 1494 1494 1495 1495 1495 1495 1496 1496 1495 1495 1495 1495 1494 1494 1494 1494 1494 1494 1494 1494 1494 1495 1495 1495 1496 1496 1496 1496 1496 1496 1497 1497 1497 1497 1497 1497 1497 1497 1497 1497 1498 1498 1498 1498 1498 1499 1499 1499 1499 1499 1500 1500 1500 1500 1500 1500 1501 1502 1502
1489 1489 1490 1490 1491 1491 1492 1492 1492 1492 1493 1493 1493 1494 1494 1494 1494 1494 1494 1493 1493 1493 1492 1492 1492 1492 1492 1492 1492 1492 1492 1492 1493 1493 1493 1494 1494 1494 1494 1494 1495 1495 1496 1496 1496 1496 1496 1496 1496 1496 1496 1496 1497 1497 1497 1497 1497 1497 1498 1498 1498 1498 1498 1498 1499 1499 1500 1501 1501
1487 1488 1488 1489 1490 1490 1490 1491 1491 1491 1491 1492 1492 1492 1492 1492 1492 1492 1492 1492 1491 1491 1490 1490 1490 1490 1490 1489 1489 1490 1490 1490 1491 1491 1491 1492 1492 1492 1492 1492 1493 1494 1494 1494 1494 1494 1494 1494 1494 1494 1495 1495 1495 1495 1495 1496 1496 1496 1497 1497 1497 1497 1497 1497 1498 1498 1499 1499 1500
1486 1487 1487 1488 1488 1489 1489 1489 1489 1490 1490 1490 1490 1490 1491 1491 1491 1490 1490 1490 1489 1488 1488 1488 1488 1488 1487 1487 1487 1487 1488 1488 1488 1489 1489 1489 1489 1490 1490 1491 1492 1492 1492 1492 1492 1492 1492 1493 1493 1493 1493 1493 1493 1494 1494 1494 1494 1495 1495 1496 1496 1496 1497 1497 1497 1497 1498 1498 1499
1485 1486 1486 1487 1487 1487 1488 1488 1488 1488 1488 1488 1488 1489 1489 1489 1489 1489 1488 1487 1487 1486 1486 1486 1486 1486 1485 1485 1485 1485 1485 1486 1486 1486 1487 1487 1487 1488 1488 1489 1490 1490 1490 1491 1491 1491 1491 1491 1492 1492 1492 1492 1492 1492 1493 1493 1493 1494 1494 1495 1495 1495 1496 1496 1496 1497 1497 1497 1498
1484 1484 1485 1485 1486 1486 1486 1487 1487 1487 1487 1487 1487 1487 1487 1487 1487 1487 1486 1485 1484 1484 1484 1483 1483 1483 1483 1483 1482 1483 1483 1483 1483 1484 1484 1485 1485 1486 1487 1487 1488 1488 1488 1489 1489 1489 1490 1490 1490 1490 1491 1491 1491 1491 1492 1492 1492 1493 1493 1494 1494 1494 1495 1495 1495 1496 1496 1497 1497
1482 1483 1483 1484 1484 1485 1485 1485 1485 1485 1485 1485 1485 1485 1485 1485 1485 1485 1484 1483 1482 1482 1482 1481 1481 1481 1481 1481 1481 1481 1481 1481 1482 1482 1482 1483 1483 1484 1485 1486 1486 1486 1487 1487 1487 1488 1488 1489 1489 1489 1489 1490 1490 1490 1491 1491 1492 1492 1492 1493 1493 1493 1494 1494 1494 1495 1495 1496 1496
1481 1482 1482 1482 1482 1483 1483 1483 1483 1483 1483 1483 1483 1483 1483 1483 1483 1482 1482 1481 1480 1480 1479 1479 1479 1479 1479 1479 1479 1479 1479 1479 1480 1480 1481 1481 1482 1482 1483 1484 1484 1485 1485 1486 1486 1487 1487 1487 1488 1488 1488 1489 1489 1489 1490 1490 1491 1491 1492 1492 1492 1493 1493 1493 1494 1494 1495 1495 1496
1479 1480 1480 1481 1481 1481 1482 1482 1482 1482 1482 1482 1482 1481 1481 1481 1481 1480 1480 1479 1478 1478 1477 1477 1477 1477 1477 1477 1477 1477 1478 1478 1478 1478 1479 1480 1480 1481 1482 1482 1483 1483 1484 1484 1485 1486 1486 1487 1487 1487 1487 1488 1488 1488 1489 1489 1490 1490 1491 1491 1492 1492 1492 1493 1493 1494 1494 1495 1495
1478 1478 1479 1479 1479 1480 1480 1480 1480 1480 1480 1480 1480 1479 1479 1479 1478 1478 1477 1477 1477 1476 1476 1476 1476 1476 1476 1476 1476 1476 1477 1477 1477 1477 1478 1478 1479 1480 1480 1481 1482 1482 1483 1483 1484 1484 1485 1485 1486 1486 1487 1487 1487 1488 1488 1489 1489 1489 1490 1490 1491 1491 1492 1492 1493 1493 1494 1494 1495
1476 1477 1477 1477 1478 1478 1478 1478 1478 1478 1478 1478 1478 1478 1477 1477 1477 1476 1476 1475 1475 1475 1474 1474 1474 1474 1475 1475 1475 1475 1475 1476 1476 1476 1477 1477 1478 1478 1479 1480 1480 1481 1482 1482 1483 1483 1484 1484 1485 1485 1486 1486 1487 1487 1487 1488 1488 1489 1489 1490 1490 1491 1491 1492 1492 1492 1493 1493 1494
1475 1475 1476 1476 1476 1476 1477 1477 1477 1477 1477 1477 1476 1476 1476 1475 1475 1474 1474 1474 1473 1473 1473 1473 1473 1473 1473 1474 1474 1474 1474 1475 1475 1475 1476 1476 1477 1477 1478 1479 1479 1480 1481 1481 1482 1482 1483 1484 1484 1484 1485 1485 1486 1486 1487 1487 1488 1488 1489 1489 1490 1490 1491 1491 1492 1492 1492 1493 1493
1473 1473 1474 1474 1474 1475 1475 1475 1475 1475 1475 1475 1475 1474 1474 1473 1473 1472 1472 1472 1472 1472 1472 1472 1472 1472 1472 1473 1473 1473 1474 1474 1474 1475 1475 1475 1476 1476 1477 1478 1478 1479 1480 1480 1481 1482 1482 1483 1483 1484 1484 1485 1485 1486 1486 1487 1487 1487 1488 1489 1489 1490 1490 1491 1491 1492 1492 1492 1493
1471 1472 1472 1472 1472 1473 1473 1473 1473 1473 1473 1473 1473 1473 1472 1472 1472 1471 1471 1471 1471 1471 1471 1471 1471 1471 1472 1472 1472 1472 1473 1473 1474 1474 1474 1475 1475 1476 1476 1477 1477 1478 1479 1480 1480 1481 1482 1482 1483 1483 1484 1484 1485 1485 1486 1486 1487 1487 1488 1488 1489 1489 1490 1490 1491 1491 1491 1492 1492
1469 1470 1470 1471 1471 1471 1471 1471 1471 1471 1471 1472 1472 1471 1471 1470 1470 1470 1470 1469 1469 1469 1469 1470 1470 1470 1471 1471 1472 1472 1472 1473 1473 1473 1474 1474 1474 1475 1475 1476 1477 1477 1478 1479 1480 1480 1481 1482 1482 1482 1483 1484 1484 1485 1485 1486 1486 1487 1487 1488 1488 1489 1489 1490 1490 1490 1491 1491 1491
1467 1468 1468 1469 1469 1469 1469 1470 1470 1470 1470 1470 1470 1470 1469 1469 1469 1468 1468 1468 1468 1468 1468 1469 1469 1470 1470 1471 1471 1472 1472 1472 1472 1473 1473 1473 1474 1474 1475 1476 1476 1477 1478 1478 1479 1480 1480 1481 1482 1482 1482 1483 1484 1484 1485 1485 1486 1486 1487 1487 1487 1488 1488 1489 1489 1489 1490 1490 1490
1465 1466 1467 1467 1467 1467 1468 1468 1468 1468 1468 1468 1468 1468 1468 1467 1467 1467 1467 1467 1467 1467 1467 1468 1468 1469 1469 1470 1470 1471 1472 1472 1472 1472 1472 1473 1473 1474 1474 1475 1476 1477 1477 1478 1479 1479 1480 1481 1481 1482 1482 1482 1483 1484 1484 1485 1485 1486 1486 1487 1487 1487 1488 1488 1488 1489 1489 1489 1489
Wind_Speed
27 28 28 28 27 27 27 26 26 26 26 25 25 25 25 25 25 25 25 25 25 25 25 25 25 26 25 25 26 26 26 26 26 27 27 27 27 27 27 27 26 26 26 26 26 26 26 26 26 26 26 26 25 25 25 25 25 25 26 27 27 27 27 27 27 27 27 26 24
29 29 28 28 28 27 27 27 27 27 27 27 27 27 27 26 26 26 26 26 26 26 26 26 26 26 26 26 26 26 26 26 26 26 26 26 26 26 25 25 25 25 25 25 25 26 26 26 27 27 27 27 27 26 26 26 26 27 27 28 28 29 29 29 29 29 28 26 21
29 29 29 28 28 28 28 27 27 27 28 28 28 28 27 27 27 27 27 27 27 27 27 26 26 26 26 26 26 26 26 26 26 26 26 25 25 24 24 24 24 24 24 24 25 25 25 26 27 27 27 27 27 27 27 27 27 28 28 29 29 29 29 29 29 29 27 23 18
30 30 29 29 29 28 28 28 28 28 28 28 28 28 28 28 27 27 27 27 27 27 26 26 26 26 26 26 25 25 25 25 25 25 25 24 24 23 23 23 23 23 23 24 24 24 25 25 26 26 26 26 26 25 25 26 26 27 28 29 29 29 29 29 29 27 23 19 16
31 30 30 30 29 29 29 29 29 29 29 28 28 28 28 27 27 27 27 27 27 26 26 26 26 25 25 25 24 24 24 24 24 24 23 23 23 23 23 23 23 23 23 23 24 24 24 24 25 25 25 25 24 24 23 24 24 25 26 27 28 28 28 28 25 22 19 16 17
31 31 31 31 30 30 30 30 29 29 29 28 28 27 27 27 27 27 26 26 26 25 25 25 25 24 24 24 24 23 23 23 23 23 23 23 23 23 23 23 23 23 23 23 23 23 24 24 24 24 24 23 23 23 22 22 22 23 24 25 25 25 24 22 20 17 15 17 19
31 31 31 31 31 30 30 30 29 28 28 27 27 27 26 26 26 26 26 25 25 24 24 24 24 23 23 23 23 23 23 22 22 22 22 22 23 23 23 23 23 22 23 23 23 23 23 23 23 23 23 23 23 22 22 22 21 21 21 21 21 19 18 16 14 14 15 17 19
31 31 30 30 30 29 29 28 27 27 27 26 26 26 26 26 25 25 25 24 24 23 23 22 22 22 22 22 23 22 22 22 22 22 22 22 23 23 22 22 22 22 23 23 23 23 23 23 22 22 22 23 22 22 21 20 19 18 18 16 16 15 14 13 14 15 17 19 21
29 28 28 27 27 26 26 26 26 25 25 25 25 25 25 24 24 24 23 23 22 22 21 21 21 22 22 22 22 22 22 22 22 22 22 22 22 22 22 22 22 22 22 22 22 22 22 22 22 22 22 21 20 19 18 17 16 15 14 14 13 14 15 15 16 18 19 21 22
26 25 25 24 24 24 24 24 24 24 24 24 23 23 23 23 22 22 21 21 21 20 21 21 21 22 22 22 22 22 22 22 22 22 22 22 22 22 22 22 22 22 22 22 22 22 22 21 21 20 19 18 17 17 17 16 15 14 14 14 15 16 18 18 19 20 20 20 18
23 22 22 22 22 22 22 22 22 22 22 22 21 21 21 21 21 20 20 20 20 20 21 21 21 22 22 21 22 22 22 22 22 21 21 21 21 21 21 21 21 21 21 21 22 22 21 21 20 19 18 17 16 16 16 15 14 15 16 17 18 19 19 19 18 18 17 15 15
21 20 20 20 20 20 21 21 20 20 20 20 20 20 20 20 20 20 20 20 20 21 21 21 21 21 21 21 21 21 21 21 21 21 21 21 21 21 21 21 20 20 20 20 20 20 20 20 20 19 18 17 16 16 16 15 15 16 17 18 19 18 17 16 15 14 13 13 14
19 19 19 19 20 20 20 20 20 20 20 20 20 20 20 20 20 20 20 20 20 20 21 21 21 21 21 21 21 21 20 20 20 20 20 20 20 20 20 20 20 19 19 19 19 19 19 18 18 18 17 16 16 16 17 17 17 17 18 17 16 15 15 14 13 13 14 15 16
19 19 19 19 20 20 20 20 20 20 20 20 20 20 20 20 20 20 20 20 20 20 20 20 20 20 20 20 20 20 20 20 20 20 20 20 20 19 19 19 18 18 18 18 17 17 17 16 16 16 15 15 15 16 17 17 18 18 17 17 15 15 14 14 13 14 15 16 17
19 19 19 19 20 20 20 19 20 20 20 20 20 20 19 20 19 19 19 19 19 20 20 20 20 20 20 20 20 20 20 20 20 20 20 20 19 19 18 18 18 17 17 17 16 16 15 15 15 15 14 14 14 15 15 16 16 16 16 15 15 14 14 14 14 14 15 15 16
19 19 19 19 19 19 19 19 19 19 19 19 19 19 19 19 19 19 19 19 19 19 19 19 19 20 20 20 19 19 20 20 20 20 20 20 19 19 18 18 17 17 17 16 16 16 15 15 15 15 14 14 15 15 15 15 15 15 15 15 14 14 13 13 14 14 14 15 15
19 19 19 19 19 18 18 18 18 18 18 18 18 18 18 18 18 18 18 19 19 19 19 19 19 19 19 20 20 20 20 20 21 21 20 20 20 19 19 18 18 18 18 17 17 17 16 16 16 16 15 15 16 16 16 16 16 16 15 15 15 14 14 14 15 15 15 15 16
18 18 18 18 17 17 17 17 17 17 17 17 17 17 17 17 17 18 18 19 19 19 19 19 20 20 20 20 20 21 21 21 21 21 21 21 20 20 20 19 19 19 19 19 19 18 18 18 17 17 17 17 17 17 17 17 17 17 17 17 16 16 16 16 16 17 17 17 18
17 17 17 16 16 16 15 16 16 16 16 16 16 16 17 17 17 17 18 18 19 19 19 20 20 20 20 21 21 21 21 21 21 21 21 21 21 21 21 21 21 20 20 20 20 20 20 19 19 19 19 19 19 19 19 19 19 19 19 19 18 18 18 18 19 19 19 19 19
16 16 15 15 14 14 14 14 15 15 15 16 16 16 16 17 17 17 18 18 19 19 19 20 20 21 21 21 21 22 22 22 22 22 22 22 22 22 22 22 22 21 21 21 21 21 21 21 21 20 20 20 20 20 20 20 20 20 20 20 20 20 20 20 20 20 20 20 21
15 14 14 13 13 13 13 13 14 14 14 15 15 16 16 17 17 17 18 18 19 19 20 21 21 22 22 23 22 22 22 23 23 23 23 23 23 23 23 22 22 22 22 22 22 22 22 22 22 21 21 21 21 21 21 21 21 21 21 21 21 21 21 21 21 21 21 21 21
13 13 12 12 12 12 12 12 13 13 14 14 14 15 16 16 17 17 18 19 19 20 21 22 22 23 24 24 24 23 23 23 23 23 23 23 23 23 23 23 23 22 23 23 23 23 23 22 22 22 21 21 21 21 21 21 21 21 21 21 21 21 21 21 21 20 20 20 20
12 11 11 10 10 10 11 11 12 12 13 13 14 15 15 16 17 17 18 19 20 21 21 22 23 24 25 25 25 24 24 24 24 24 24 24 24 24 24 24 23 23 23 23 23 23 22 22 22 22 22 21 21 21 21 21 21 21 21 21 21 21 21 20 20 20 20 19 19
11 10 10 9 9 9 10 10 11 12 12 13 14 15 15 16 16 17 18 19 20 21 22 23 24 24 25 26 26 26 26 25 25 25 25 25 25 24 24 24 24 24 23 23 23 23 22 22 22 22 22 22 21 21 21 21 21 21 21 21 20 20 20 20 19 19 19 18 17
10 10 9 9 9 9 10 10 11 11 12 13 14 14 15 16 16 17 18 19 20 21 22 23 24 25 26 26 27 27 27 27 26 26 26 25 25 25 25 25 24 24 23 23 22 22 22 22 22 22 22 21 21 21 21 21 21 21 20 20 20 19 19 18 18 17 16 14 12
11 10 10 10 10 10 10 10 11 12 12 13 14 15 15 16 17 17 18 19 20 21 22 23 24 25 26 27 28 28 28 27 27 26 26 26 26 26 25 25 24 23 23 22 22 22 22 22 21 21 21 21 20 20 20 20 20 20 19 19 18 17 16 16 15 14 12 10 10
11 11 11 10 10 10 11 11 12 12 13 14 15 16 16 17 17 18 19 20 21 22 23 23 24 25 26 26 27 28 28 28 27 27 27 26 26 26 26 25 24 23 22 22 22 22 22 21 21 20 20 20 19 19 19 19 19 18 17 16 15 15 14 13 12 10 9 9 10
12 12 12 11 11 11 12 12 13 14 14 15 16 17 17 18 18 19 20 21 22 23 24 24 24 24 25 25 26 27 27 28 27 27 27 27 27 26 25 24 23 23 22 22 22 21 21 20 19 19 19 18 18 18 17 17 16 15 14 13 12 12 11 11 10 10 9 10 10
13 13 13 13 13 13 13 13 14 15 16 16 17 18 18 19 19 20 21 22 23 24 24 24 24 24 24 24 25 25 26 26 27 27 27 27 26 26 25 24 23 23 22 21 21 20 19 18 18 17 17 17 16 16 15 14 13 12 12 11 10 10 10 10 10 10 10 10 10
14 14 14 14 14 14 14 15 15 16 17 18 18 19 19 20 20 21 22 23 24 24 24 24 24 24 24 24 24 24 24 24 25 25 26 26 26 25 24 23 23 22 21 20 19 18 18 17 16 16 15 15 14 13 12 11 11 10 10 10 10 9 9 10 10 10 10 10 9
16 15 15 15 15 15 15 16 16 17 18 18 19 20 21 21 21 21 22 23 23 24 24 24 23 23 23 23 22 22 22 22 23 23 24 24 24 24 23 22 21 20 19 18 17 17 16 16 15 14 13 12 12 11 11 10 10 10 10 9 9 10 10 10 10 9 9 9 9
17 16 16 16 16 16 17 17 17 18 18 19 20 21 22 22 22 22 22 23 23 23 23 23 22 21 21 21 20 19 19 20 21 22 22 23 23 22 21 20 19 18 17 16 16 15 15 14 13 12 12 11 11 10 10 10 10 10 10 9 9 10 10 10 10 9 9 9 9
18 18 17 17 17 17 18 18 18 19 19 20 21 22 23 23 23 23 23 22 22 22 21 21 20 20 19 18 18 18 18 19 20 20 21 21 21 20 19 18 17 16 15 15 15 14 14 13 12 11 11 11 10 10 10 10 10 9 9 9 9 9 9 9 9 9 9 9 9
19 18 18 18 18 18 18 19 19 20 20 21 21 22 23 24 23 23 22 22 22 21 20 19 18 18 17 17 17 17 17 18 18 19 19 19 18 18 17 16 15 15 14 14 14 13 12 12 11 11 11 10 10 10 10 10 9 9 9 9 9 9 9 9 9 9 9 9 9
20 20 19 19 19 19 19 19 20 20 21 21 22 23 23 24 23 22 22 22 22 20 19 18 17 16 16 16 16 16 16 16 17 17 17 16 16 16 15 14 14 14 13 13 13 12 11 11 11 11 11 10 10 10 10 10 10 10 9 9 9 9 9 9 9 9 9 9 9
21 21 20 20 20 20 20 20 20 21 21 22 22 23 23 23 23 23 23 22 20 18 16 16 16 15 15 15 16 16 15 15 15 15 15 15 14 14 14 13 13 13 13 12 12 11 11 11 11 11 11 10 10 10 10 10 10 10 10 10 10 10 9 9 9 9 9 9 9
23 22 21 21 20 20 20 20 20 21 21 22 23 23 23 22 22 22 22 19 17 15 14 14 14 14 15 15 15 15 15 14 14 13 13 13 13 13 13 13 13 12 12 11 11 11 11 11 11 11 11 11 11 11 11 11 11 11 11 10 10 10 10 10 10 10 9 9 10
24 23 22 21 21 20 20 20 21 21 22 22 23 23 23 22 21 20 18 16 13 13 13 13 14 14 15 15 14 14 13 13 12 12 12 12 13 13 12 12 12 12 11 11 11 12 12 12 11 11 11 11 11 11 11 11 11 11 11 10 10 10 10 10 10 10 10 10 10
25 24 23 22 21 20 20 20 21 21 22 22 22 23 22 22 20 17 14 12 11 11 12 13 14 14 14 14 13 12 11 11 11 11 12 12 12 12 12 12 12 11 11 11 12 12 12 12 12 12 12 12 12 12 12 11 11 11 10 10 10 11 10 10 10 10 10 10 10
26 24 23 22 21 20 20 20 21 21 22 22 22 22 21 20 17 14 11 10 10 11 12 13 13 13 13 13 12 11 11 11 11 11 11 11 12 12 12 11 11 11 11 12 13 13 13 13 13 12 12 12 12 12 12 11 11 11 11 11 11 11 10 10 10 10 10 10 10
26 24 23 21 21 20 20 20 21 21 21 22 21 21 20 18 15 12 10 9 9 10 11 12 13 13 12 12 11 11 11 11 11 11 11 11 11 11 11 11 11 11 12 13 13 13 13 13 13 13 13 12 12 12 11 11 11 11 11 11 11 11 10 10 10 10 10 10 9
Wind_Direction
230 231 232 233 233 234 234 234 235 237 239 242 244 247 249 250 252 253 255 255 255 255 256 256 257 259 260 262 264 266 267 269 270 271 271 271 271 270 270 270 270 269 269 268 267 267 266 264 263 261 260 258 256 255 255 254 254 254 256 259 262 264 266 268 270 272 273 272 268
231 233 233 234 235 236 236 237 238 239 240 242 244 246 248 249 250 251 252 253 253 254 255 256 258 260 262 264 266 268 269 270 271 271 271 270 270 270 270 269 269 268 268 267 266 265 265 264 263 263 263 262 260 258 257 256 256 256 257 259 262 265 267 269 271 273 273 270 266
233 234 235 236 236 237 237 238 239 240 241 242 244 245 246 247 248 249 250 251 252 254 255 257 260 262 264 266 268 269 270 271 271 270 270 270 269 269 268 268 268 267 266 266 265 264 263 263 263 263 263 263 262 260 259 258 258 258 259 260 263 265 267 268 270 271 270 268 264
234 235 236 237 237 238 238 239 239 240 241 242 243 244 245 246 247 249 250 252 253 255 257 260 262 264 266 268 269 270 270 270 270 269 269 268 268 268 267 267 267 266 265 265 264 263 263 262 262 263 263 263 262 262 261 260 259 259 259 261 262 264 265 266 267 267 266 264 260
234 235 236 237 237 238 238 238 238 239 239 240 242 243 244 246 247 249 251 253 255 257 259 262 264 266 267 268 269 269 269 268 268 268 267 267 267 267 267 267 266 266 265 264 264 263 262 261 261 262 262 262 263 262 262 260 259 258 258 259 260 261 262 263 262 262 260 257 253
234 235 235 236 236 237 237 237 238 238 239 240 242 243 245 246 248 249 251 254 256 258 261 263 265 266 267 268 267 267 267 266 266 266 266 266 266 266 266 266 266 266 265 264 263 262 261 261 261 262 262 262 262 262 261 260 258 256 255 256 257 259 260 260 259 257 255 254 252
235 235 235 236 236 237 237 238 239 240 241 242 243 244 246 247 248 250 252 254 257 259 261 263 264 265 266 266 266 266 266 266 266 266 266 266 266 266 266 266 266 265 264 263 263 262 262 262 263 263 263 263 262 261 261 261 259 258 257 258 259 260 260 259 255 253 252 253 253
236 236 236 237 238 238 239 240 241 242 243 243 244 245 246 247 249 251 253 256 258 259 261 262 262 263 264 264 265 265 265 265 265 265 266 266 266 266 266 265 265 264 264 264 263 263 263 263 264 264 264 265 265 266 266 265 264 263 264 266 266 265 260 255 251 249 248 249 249
238 238 239 239 240 241 241 242 242 243 244 245 246 246 248 249 251 253 255 257 258 258 259 259 260 261 261 262 263 264 265 265 265 265 265 266 265 265 265 265 265 265 265 265 265 265 264 265 265 265 266 267 268 269 268 264 261 260 262 264 263 259 255 250 248 247 246 247 248
240 240 241 241 241 241 241 242 242 243 244 246 247 248 250 252 253 254 255 256 256 256 256 256 258 259 260 261 263 264 264 264 265 265 265 265 265 265 265 265 265 265 266 266 266 266 266 267 267 267 267 268 267 267 263 256 250 251 255 257 257 254 250 246 245 246 247 248 251
239 240 240 240 239 239 240 241 241 243 244 246 247 249 250 252 252 253 253 253 253 254 254 256 258 259 260 262 263 264 265 265 265 265 265 265 264 264 265 265 265 266 267 268 268 269 269 268 268 268 267 264 263 261 257 250 246 250 255 255 254 252 249 247 246 247 249 254 259
236 237 236 236 236 236 237 238 239 241 242 244 246 247 248 249 250 250 251 252 252 254 256 258 259 260 261 262 263 264 265 265 265 265 264 264 264 265 265 266 266 267 267 268 269 270 270 269 269 268 266 261 257 255 254 252 250 251 252 250 249 248 247 247 248 250 253 258 261
232 232 231 231 232 233 234 235 237 239 241 242 243 245 246 247 248 249 251 253 254 256 258 260 261 262 263 263 264 265 265 265 265 264 264 264 264 265 265 266 267 268 268 268 269 270 270 269 268 268 265 260 254 252 252 254 255 255 254 253 252 251 251 251 252 253 255 255 256
228 228 228 229 230 232 233 235 237 238 240 241 242 244 245 246 248 250 252 254 256 257 259 260 262 262 263 264 264 265 265 264 264 264 264 264 265 265 266 267 268 268 268 268 269 269 268 268 266 266 264 260 255 252 252 254 257 259 262 264 265 265 264 263 261 259 257 256 255
226 227 228 229 231 233 234 236 237 239 240 242 243 244 246 247 249 252 254 255 257 258 259 260 262 263 264 264 264 264 264 264 264 264 264 265 265 266 267 268 268 268 268 268 267 267 267 266 265 264 263 261 258 256 256 257 260 263 266 268 270 271 271 271 269 266 262 259 257
226 228 229 231 233 234 236 237 239 240 241 242 244 245 247 249 251 253 255 256 258 259 260 261 262 263 264 264 263 263 264 264 264 264 265 266 266 267 267 268 267 267 266 266 266 266 266 266 265 264 264 263 263 262 262 263 264 266 268 269 271 272 273 273 272 269 266 262 260
228 229 231 233 235 237 238 239 241 242 243 245 246 248 250 252 254 256 257 258 259 260 261 262 263 263 263 264 264 263 264 264 264 265 266 267 267 267 267 267 266 266 265 265 265 266 266 266 266 266 266 266 266 267 267 268 269 269 269 270 270 271 270 270 269 268 266 264 262
229 231 233 235 236 238 240 241 243 245 247 249 251 252 254 256 258 259 260 261 262 263 263 264 264 264 264 264 264 264 264 265 265 265 266 266 266 266 266 265 265 265 265 265 265 266 266 267 267 268 268 268 268 269 270 270 270 270 270 270 269 268 267 267 266 265 265 264 263
229 231 233 235 237 239 241 244 247 249 252 253 255 257 258 260 261 263 264 265 266 266 266 266 267 266 266 265 265 265 265 265 265 265 265 265 265 264 264 264 264 264 265 265 266 266 267 267 268 269 270 270 270 270 271 271 271 270 270 269 268 268 267 266 266 265 265 264 264
228 230 233 235 238 241 243 247 250 253 255 258 260 261 263 264 265 266 267 268 269 269 269 269 269 268 268 267 267 266 266 265 265 264 264 264 263 263 263 264 264 265 265 266 266 267 267 268 269 270 270 271 271 271 271 271 270 270 269 269 268 267 267 266 266 265 265 265 265
227 230 233 236 240 243 247 250 253 256 259 261 264 266 267 269 270 271 271 272 272 272 272 271 270 269 269 268 267 267 266 266 265 264 263 263 263 263 263 263 264 264 265 266 266 267 267 268 269 270 271 271 271 271 270 270 269 269 268 268 267 267 266 266 266 265 265 265 264
226 229 233 237 242 246 250 254 257 260 263 265 268 270 272 274 275 275 276 275 275 274 273 272 271 270 270 269 268 267 266 265 264 264 263 263 262 262 263 263 263 264 264 265 266 267 268 269 270 270 270 270 270 270 269 269 268 268 268 267 267 266 266 265 264 264 264 263 263
224 228 233 238 243 248 252 256 260 263 266 269 271 274 276 278 279 279 279 279 278 276 275 273 272 271 271 270 268 267 265 264 263 263 262 262 262 262 262 262 263 263 264 265 266 267 268 269 269 269 269 269 269 268 268 268 268 268 267 267 266 265 264 263 263 262 262 261 261
221 226 231 237 242 247 252 256 261 265 269 272 275 277 279 281 282 283 282 281 280 278 276 274 273 271 270 269 267 265 264 262 261 261 261 261 261 261 261 262 262 263 264 265 267 268 268 268 268 268 268 267 267 268 268 268 268 267 267 266 265 263 262 261 261 260 260 261 261
219 224 229 235 240 245 251 256 261 266 271 275 279 282 284 285 286 286 284 283 281 279 276 275 273 271 269 268 266 264 263 261 260 259 259 260 260 260 261 261 262 263 264 265 266 267 267 266 266 267 267 266 267 267 267 267 267 266 265 264 262 260 259 258 258 259 259 260 258
221 225 230 234 240 246 251 257 264 269 275 279 284 287 289 291 291 290 287 285 282 279 277 275 273 271 270 268 266 264 262 260 258 257 257 258 258 259 259 260 261 262 263 264 265 265 265 265 264 265 265 265 265 265 265 265 265 264 263 261 259 257 256 255 256 256 256 252 246
225 229 233 238 243 249 255 261 267 273 278 283 287 291 294 295 295 294 291 288 284 281 279 277 274 272 271 269 267 264 261 259 257 256 256 256 257 257 258 259 260 261 262 262 263 262 263 262 262 262 262 262 262 263 263 262 262 261 259 256 254 252 252 251 251 249 246 241 238
231 235 240 244 249 253 259 264 270 275 280 284 289 293 296 298 299 297 294 290 286 283 281 279 277 275 273 271 268 264 261 258 256 255 255 255 255 256 257 258 259 259 260 260 260 260 260 260 259 259 259 259 260 260 259 258 257 255 253 250 249 247 246 245 243 241 238 236 236
237 241 245 249 253 257 262 266 271 275 280 285 290 294 297 300 300 298 295 291 288 285 283 280 279 277 274 270 267 264 260 258 256 254 254 253 254 254 255 256 257 258 258 258 257 256 256 255 254 254 255 256 256 256 254 252 250 249 247 245 244 243 242 240 239 237 237 237 237
242 245 249 252 256 260 263 267 271 276 281 285 290 294 298 300 300 298 295 291 288 286 284 282 280 277 274 271 267 263 259 256 255 253 252 252 252 253 254 255 257 257 256 255 252 250 249 249 249 250 251 252 251 249 246 244 242 242 241 240 239 238 237 237 236 235 235 235 234
245 248 252 255 259 262 265 269 272 277 281 286 290 294 298 300 301 298 295 291 288 286 284 282 280 278 276 272 268 263 259 256 254 253 252 252 252 253 254 255 256 255 252 249 245 243 242 243 244 245 246 244 241 238 236 235 235 235 236 236 235 234 233 232 232 231 230 229 226
248 251 254 257 261 264 268 271 274 278 282 286 291 295 299 301 301 298 294 290 287 285 283 283 282 280 277 273 269 264 260 256 254 253 252 252 252 253 254 254 253 250 245 241 237 236 237 238 239 239 237 234 231 230 229 229 230 231 231 231 230 229 227 227 226 225 223 219 216
250 252 255 258 262 266 269 272 275 278 282 286 291 296 300 302 301 298 293 288 284 282 282 283 283 281 277 273 268 263 259 256 254 253 253 252 252 252 252 251 247 242 236 232 230 231 232 233 233 231 229 226 225 225 225 226 226 226 226 226 225 223 222 221 219 217 215 212 209
251 253 256 259 262 265 268 272 275 278 282 287 292 297 300 302 300 296 291 286 282 280 281 281 281 278 274 269 264 260 257 255 254 253 253 252 251 250 247 244 238 233 228 226 226 227 228 228 226 224 223 222 222 221 221 221 221 220 219 218 218 216 215 214 212 211 210 208 207
252 253 256 258 261 264 267 271 275 279 283 288 293 298 300 300 298 293 288 283 280 279 279 279 278 275 270 265 260 256 253 253 253 253 252 251 249 245 240 234 229 225 223 222 223 223 223 222 221 220 219 219 218 218 217 215 213 211 209 208 208 207 207 207 208 208 209 210 212
252 253 256 258 261 264 266 270 274 278 283 289 294 299 300 298 295 290 285 282 280 279 278 277 275 271 266 262 258 254 252 251 250 251 250 248 244 239 232 226 222 220 219 219 219 218 217 217 217 216 216 215 214 213 211 208 206 203 202 200 201 202 203 206 208 210 213 216 218
252 254 256 258 260 263 266 270 274 279 284 290 296 299 299 296 291 287 283 280 279 278 276 274 270 266 261 257 254 252 251 250 249 248 247 244 238 232 225 220 219 218 216 215 213 213 212 212 212 212 211 210 209 207 205 203 201 200 199 198 200 202 206 209 213 216 220 223 225
254 255 256 258 260 263 267 271 275 279 285 291 297 298 297 292 288 283 280 277 275 273 270 267 263 260 256 253 251 249 249 249 248 246 243 238 232 225 220 217 216 215 213 210 208 207 207 207 207 207 206 204 203 202 201 199 198 198 199 200 203 207 211 215 219 222 225 228 230
255 255 256 258 260 264 267 271 275 280 286 292 296 297 294 289 284 278 273 271 269 266 264 261 259 257 255 251 247 246 246 247 246 244 240 235 229 222 218 215 214 212 208 204 203 203 203 203 203 202 201 200 199 199 198 198 198 200 202 205 209 213 217 219 222 225 227 230 231
256 256 257 258 260 263 267 271 276 281 287 293 296 294 290 284 277 270 264 262 262 262 262 261 258 256 252 246 241 240 242 245 245 241 237 231 226 221 217 214 211 206 202 199 199 199 199 199 200 199 199 198 198 198 199 200 201 204 208 211 215 218 220 222 223 225 227 229 231
256 256 256 257 260 263 267 271 276 282 287 292 294 291 286 278 269 261 256 256 257 259 260 259 255 251 245 239 235 234 237 241 241 238 233 228 224 221 217 212 205 199 197 197 196 197 197 198 198 199 199 199 200 201 203 205 207 210 213 216 219 221 221 222 223 224 225 227 230